Flag for Switzerland Weather past 2 weeks in Geneva, Geneva, Switzerland

Now
58 °F

Passing clouds.


Feels Like: 58 °F
Forecast: 50 / 71 °F
Wind: 1 mph from Northwest

Location: Geneve-Cointrin

Current Time: Aug 31, 2014 at 6:21:13 AM

Latest Report: Aug 31, 2014 at 5:00 AM


Visibility: 31 mi

Pressure: 30.05 "Hg

Humidity: 89%

Dew point: 55 °F

Location of GenevaLocation

Historic Weather in Geneva — Graph

°F

Geneva temperature yesterday

Maximum temperature yesterday: 75 °F (at 6:00 PM)
Minimum temperature yesterday: 62 °F (at 11:00 PM)
Average temperature yesterday: 68 °F

Past Weeks' High & Low Weather Summary

 TemperatureHumidityPressure
High78 °F (Aug 28, 6:00 PM)94% (Aug 16, 4:00 AM)30.21 "Hg (Aug 16, 4:00 AM)
Low47 °F (Aug 17, 6:00 AM)36% (Aug 18, 4:00 PM)29.83 "Hg (Aug 18, 8:00 PM)
Average63 °F69%30.02 "Hg
* Reported Aug 16 4:00 AM — Aug 31 4:00 AM, Geneva, Weather by CustomWeather, © 2014

Note: Actual official high and low records may vary slightly from our data, if they occured in-between our weather recording intervals... More about our weather records

Advertising

Geneva weather history for previous 24 hours

 ConditionsComfort  
Time TempWeatherWind HumidityBarometerVisibility
4:00 AM
Aug 31
58 °FCool.2 mph88%30.06 "HgN/A
3:00 AM59 °FCool.2 mph88%30.06 "HgN/A
2:00 AM60 °FPassing clouds.1 mph87%30.07 "Hg31 mi
1:00 AM61 °FCool.1 mph85%30.06 "HgN/A
12:00 AM62 °FCool.1 mph83%30.06 "HgN/A
11:00 PM
Aug 30
62 °FPassing clouds.2 mph82%30.06 "Hg37 mi
10:00 PM65 °FMild.2 mph73%30.06 "HgN/A
9:00 PM68 °FMild.3 mph61%30.03 "HgN/A
8:00 PM71 °FScattered clouds.5 mph59%30.02 "Hg37 mi
7:00 PM74 °FMild.5 mph50%30.00 "HgN/A
6:00 PM75 °FMild.5 mph51%30.00 "HgN/A
5:00 PM74 °FPassing clouds.8 mph52%30.01 "Hg37 mi
4:00 PM74 °FMild.7 mph51%30.02 "HgN/A
3:00 PM74 °FMild.7 mph51%30.04 "HgN/A
2:00 PM74 °FScattered clouds.5 mph53%30.05 "Hg37 mi
1:00 PM72 °FMild.6 mph56%30.07 "HgN/A
12:00 PM71 °FMild.8 mph62%30.09 "HgN/A
11:00 AM69 °FScattered clouds.8 mph65%30.09 "Hg28 mi
10:00 AM69 °FMild.6 mph70%30.10 "HgN/A
9:00 AM65 °FMild.1 mph88%30.11 "HgN/A
8:00 AM63 °FOvercast.No wind89%30.10 "Hg19 mi
7:00 AM62 °FCool.1 mph92%30.09 "HgN/A
6:00 AM63 °FMild.No wind90%30.09 "HgN/A
Weather by CustomWeather, © 2014

See weather overviewHow to use our weather pages